Theta_e
332 335 336 336 336 335 333 331 331 331 330 331 331 331 332 333 333 334 335 340 349 354 353 354 353 353 352 353 353 354 354 353 353 353 352 351 352 353 353 353 353 352 352
334 334 335 335 334 334 332 331 331 331 332 332 333 334 337 336 337 335 338 338 344 353 353 354 354 354 353 353 353 353 353 353 353 352 352 351 351 351 352 352 352 352 352
336 337 336 335 335 334 333 334 334 336 334 335 334 336 337 342 339 337 337 337 341 353 352 354 353 354 353 353 354 353 353 352 352 352 351 351 350 351 352 352 352 352 352
338 337 337 336 337 338 337 336 337 339 338 338 338 338 340 342 342 338 336 338 341 343 348 354 352 352 352 352 351 353 352 352 351 351 351 350 350 350 351 351 351 351 351
340 338 339 340 341 339 339 339 339 339 339 339 339 341 342 342 342 341 339 338 339 342 342 343 349 350 351 347 345 350 351 350 349 350 351 351 350 349 349 349 350 350 349
338 339 338 338 339 338 338 338 340 341 339 341 340 343 342 340 341 341 340 340 340 340 341 340 342 344 345 348 349 347 345 348 346 348 348 348 348 349 349 348 349 349 350
336 336 339 339 338 337 340 340 339 338 338 340 339 338 337 337 336 335 337 338 338 339 339 338 341 341 341 342 342 344 345 346 348 348 346 345 346 347 348 348 348 348 348
342 338 336 336 340 339 339 338 338 337 339 337 334 332 329 330 331 332 331 330 326 328 327 329 329 330 332 336 339 340 342 344 345 345 344 343 345 346 347 347 347 347 347
344 343 341 339 338 339 338 338 341 340 336 337 335 332 324 324 325 327 320 322 322 321 323 324 325 326 329 331 332 332 335 336 339 339 338 339 342 343 345 345 344 344 344
339 340 341 341 339 340 338 338 335 336 333 332 332 332 331 330 325 318 318 318 319 319 320 321 322 324 326 326 329 331 330 330 332 333 334 335 336 336 337 343 341 341 340
333 334 333 332 332 331 328 326 325 324 325 325 323 326 329 329 328 323 316 314 316 316 317 319 321 323 324 326 325 325 325 325 325 327 328 329 332 332 331 337 343 339 338
329 328 327 324 323 322 319 320 318 317 317 316 316 316 318 319 320 321 314 312 312 314 314 318 318 320 323 324 325 324 322 321 321 322 322 324 326 327 329 330 339 338 333
323 323 322 320 319 320 320 319 317 315 315 314 314 313 314 313 318 319 315 310 309 311 312 314 317 319 319 320 322 321 322 322 321 320 320 320 322 322 323 324 326 326 327
320 322 319 319 318 317 316 315 315 314 314 313 313 313 313 313 313 314 314 311 306 308 311 310 316 316 318 320 323 323 321 322 322 322 321 319 319 320 319 319 319 320 320
319 318 316 315 316 316 315 314 311 310 310 310 309 309 309 308 309 312 313 313 311 307 305 310 311 316 315 317 318 316 317 317 318 319 320 321 320 318 317 317 317 316 316
316 316 316 317 315 313 311 309 308 308 307 307 306 306 306 305 306 306 307 310 310 308 305 308 311 310 310 310 313 312 313 312 314 317 317 317 317 320 320 319 319 319 319
319 319 319 317 314 310 309 307 307 307 306 306 306 306 305 305 303 304 305 305 307 310 308 305 307 308 309 308 309 310 310 311 311 316 315 314 315 315 315 316 317 318 319
314 317 317 314 311 309 309 308 307 307 307 306 305 305 304 305 304 304 304 304 305 306 305 303 305 306 307 307 308 308 307 308 310 313 313 312 313 313 313 313 314 314 314
311 314 315 313 311 310 308 307 306 305 304 305 306 306 304 305 303 304 303 303 303 303 303 302 302 304 305 305 305 306 307 307 309 311 310 310 310 311 312 312 312 312 310
310 310 312 311 311 310 308 306 304 303 303 303 305 308 308 305 304 305 304 304 304 303 303 302 302 302 302 304 304 302 304 306 305 308 309 308 308 309 308 309 310 311 310
308 309 309 309 310 310 308 305 304 302 302 303 303 304 310 313 311 310 307 305 305 303 302 302 301 301 301 302 302 302 302 304 305 305 306 307 307 308 308 309 310 311 309
304 306 306 307 308 307 306 305 303 301 301 301 301 302 305 307 307 308 308 310 308 305 303 302 301 301 302 302 303 302 302 302 301 307 305 305 306 307 308 309 307 308 307
302 302 302 304 304 306 303 304 303 302 301 301 301 302 302 302 304 304 303 304 306 307 306 305 304 304 304 304 303 303 304 303 303 305 306 304 307 306 308 309 306 307 305
303 300 300 301 302 303 302 303 302 303 302 302 302 301 301 302 303 303 304 303 304 307 309 307 306 306 306 306 305 304 304 303 305 305 307 303 307 305 307 309 306 306 305
303 301 301 301 302 302 301 301 303 303 303 302 301 302 303 302 300 299 303 303 305 305 308 306 304 302 301 302 304 307 305 304 303 305 306 304 305 304 307 307 309 306 304
303 302 303 302 301 302 299 300 302 303 302 302 304 306 302 303 299 298 302 303 303 303 305 305 305 305 305 306 304 306 305 303 302 303 307 304 304 304 301 308 308 309 307
Wind_Speed
4 3 3 3 4 3 3 4 3 4 5 6 6 4 5 6 8 4 4 11 11 14 15 14 13 14 15 14 12 12 12 11 11 11 12 13 13 14 14 15 15 15 14
4 4 4 4 5 4 3 3 4 5 5 5 8 5 6 6 7 6 3 4 11 12 13 13 12 14 15 14 14 14 13 13 13 13 12 13 13 14 14 15 15 15 15
6 5 4 5 6 4 5 4 5 4 5 5 7 5 4 5 4 6 5 4 4 8 9 10 13 14 14 14 15 15 15 15 15 14 14 14 14 14 15 15 16 16 16
7 5 6 6 5 4 4 3 4 4 4 4 3 4 3 3 4 4 4 3 4 4 6 11 12 13 13 13 15 16 14 15 15 15 15 15 15 15 15 16 17 17 17
8 8 7 8 5 4 4 4 3 3 3 3 3 3 4 4 5 2 3 3 3 4 3 7 10 12 12 12 17 15 13 13 16 16 16 17 17 17 17 17 17 17 17
7 6 6 8 4 4 5 4 4 3 4 5 4 5 4 5 4 4 4 3 3 5 5 5 5 5 9 13 16 16 16 18 16 19 18 18 18 17 17 18 18 18 18
5 6 5 5 4 6 5 3 2 6 3 3 2 3 2 2 3 3 3 3 6 7 8 7 6 5 4 11 12 16 19 21 20 18 17 19 19 19 19 19 19 18 18
3 4 5 5 4 3 6 6 4 2 4 2 3 0 2 2 4 5 5 5 8 6 8 8 7 8 7 6 10 14 15 16 16 19 19 18 19 24 24 21 19 19 18
5 5 3 3 4 4 3 3 4 5 2 1 2 3 1 3 2 3 7 6 7 6 6 7 8 9 8 6 9 12 18 18 17 18 21 17 17 20 17 20 19 19 18
8 8 7 6 6 4 6 6 5 4 2 2 1 2 2 1 1 2 3 4 6 7 7 5 6 7 7 5 11 16 18 18 19 21 20 18 23 22 22 23 19 16 15
9 10 10 9 8 7 7 8 7 7 5 3 4 3 2 1 1 0 2 3 3 5 4 4 5 5 7 5 5 12 17 17 17 18 18 19 21 21 29 17 26 22 19
6 9 10 9 8 8 8 7 8 10 7 8 6 7 4 2 2 2 3 3 3 2 3 5 6 5 5 5 10 14 15 16 16 16 17 18 19 20 25 28 1 13 9
5 7 7 9 8 9 9 8 9 10 8 6 6 5 5 5 2 2 3 2 2 2 2 2 4 4 5 5 7 11 13 13 12 11 12 14 16 18 20 22 21 23 22
5 7 9 9 10 9 8 8 7 7 7 7 9 7 5 6 5 3 2 2 2 2 3 3 2 4 5 5 7 11 7 13 13 10 7 6 8 11 15 16 16 17 17
6 8 9 9 9 9 9 8 7 8 8 7 7 7 5 5 5 4 3 2 1 2 4 4 3 6 5 5 9 7 8 12 15 15 14 9 6 3 3 5 6 10 11
7 9 9 9 9 9 8 8 7 7 9 7 6 8 7 5 6 5 4 3 3 3 3 1 4 4 5 5 8 7 8 11 15 15 15 14 14 7 5 5 6 6 4
7 8 8 9 9 9 7 9 8 8 10 8 8 8 9 7 7 7 6 5 4 3 5 3 3 4 5 7 8 7 8 7 6 15 15 15 13 12 10 9 6 4 5
7 8 8 9 9 9 8 8 9 8 8 9 7 8 9 6 8 7 6 8 7 6 4 4 3 5 6 5 6 7 7 6 5 15 16 15 14 12 11 11 11 9 8
8 8 8 8 8 8 9 8 8 8 8 7 7 7 7 8 8 6 8 7 7 6 6 4 4 3 2 5 4 4 7 7 4 13 14 12 13 15 12 13 11 10 10
8 8 7 8 8 7 7 7 7 7 7 7 7 6 6 6 6 7 7 7 6 6 5 4 4 3 2 3 3 4 8 5 4 8 10 8 10 14 13 14 12 13 11
7 7 9 8 6 5 5 6 7 6 6 6 7 7 7 9 9 8 5 5 5 5 4 4 4 2 3 3 5 4 4 5 3 5 7 5 7 8 9 11 13 14 12
8 8 7 6 6 4 7 10 8 6 6 7 6 6 7 10 9 12 10 9 5 4 4 2 2 3 3 3 3 3 4 4 4 3 6 4 5 7 6 6 12 11 13
6 6 5 5 5 4 6 7 8 5 6 5 5 5 6 5 7 6 8 7 8 7 3 1 2 2 3 3 4 4 4 4 3 4 5 5 4 8 6 5 9 11 11
5 5 5 4 4 3 3 5 6 5 4 5 4 4 4 5 6 5 5 6 5 6 5 3 2 2 2 3 2 3 3 5 3 2 3 4 6 9 7 5 9 11 13
4 3 3 4 4 4 1 7 4 3 3 3 3 2 3 3 5 5 5 6 6 7 7 8 6 5 6 6 4 3 5 5 4 2 2 5 4 6 5 4 7 10 12
3 2 3 3 4 4 5 5 3 1 2 2 4 5 4 3 3 4 5 4 5 6 7 8 8 7 7 6 7 4 3 4 4 4 4 5 5 2 4 1 5 5 9
Wind_Direction
237 241 246 252 250 250 252 274 284 292 290 298 293 284 281 274 278 273 272 261 237 224 224 233 231 239 241 237 237 234 231 230 227 221 216 214 216 219 213 212 209 208 206
224 229 246 251 259 232 229 241 255 270 286 291 293 298 306 305 296 284 264 273 263 222 222 231 235 243 242 242 237 236 235 228 227 227 226 224 223 221 222 216 214 213 211
228 236 245 253 248 237 243 231 246 251 262 269 264 267 274 290 286 287 279 267 241 225 227 223 239 246 246 239 240 234 235 234 227 230 230 228 227 224 222 223 220 217 215
221 226 239 248 247 240 242 245 244 255 255 249 269 260 256 263 294 289 256 243 220 237 232 236 241 249 255 255 256 246 236 237 236 228 232 233 234 232 227 225 225 223 219
225 222 231 243 233 235 234 240 259 245 265 270 258 252 241 240 251 294 285 267 269 278 292 294 273 251 252 254 263 267 264 258 246 233 233 233 233 233 235 232 229 226 226
226 219 237 243 227 229 238 222 227 235 247 260 275 251 237 236 237 240 264 295 338 343 338 322 309 309 302 276 273 276 272 269 279 265 242 241 238 236 233 233 232 231 227
269 245 242 241 215 222 239 211 219 244 277 228 258 293 268 258 309 353 334 3 34 36 37 27 12 4 350 341 333 320 306 285 272 267 268 249 241 243 237 232 230 228 225
304 274 257 261 244 223 235 248 202 240 248 200 254 126 290 84 46 37 40 53 38 36 29 24 19 16 9 0 3 8 4 340 315 296 288 283 264 247 233 227 228 227 224
16 8 312 263 249 218 224 236 209 207 241 185 255 238 264 233 144 56 32 39 45 39 32 23 22 23 17 30 39 34 40 31 18 24 26 12 309 281 261 236 235 227 229
27 25 34 42 51 52 31 57 14 359 315 15 307 313 260 260 231 144 48 41 41 43 24 33 23 28 37 41 36 42 42 39 37 34 33 28 32 16 0 243 224 239 239
31 33 33 38 43 51 56 38 54 41 8 58 357 357 20 8 46 306 141 140 75 42 29 28 29 24 20 22 44 38 40 38 35 30 25 24 27 25 21 329 223 219 217
32 35 47 48 51 50 51 53 59 60 53 58 50 41 29 22 16 28 100 60 90 53 26 37 34 21 24 16 38 33 36 39 36 36 34 29 28 32 32 24 340 206 181
44 40 54 61 63 65 63 67 64 58 52 60 52 52 46 39 357 53 77 87 100 47 28 26 28 24 21 15 19 28 17 17 17 20 29 38 40 41 47 49 47 56 59
66 70 63 63 61 64 63 61 61 60 55 51 51 47 46 31 31 39 98 137 94 74 53 350 11 10 6 359 351 10 1 6 9 355 351 16 38 47 58 65 65 63 60
75 68 69 70 62 58 57 59 57 52 58 45 45 49 50 31 35 33 45 47 118 124 41 11 356 8 12 21 34 31 29 30 29 33 26 357 332 350 21 38 59 80 85
77 79 73 71 70 61 58 60 57 44 59 41 41 45 35 25 37 34 33 43 61 112 118 2 28 12 11 28 22 26 20 22 18 24 25 22 26 5 322 318 318 311 282
74 73 74 75 67 67 55 67 61 59 65 56 43 53 44 30 39 32 35 37 42 55 114 88 15 349 13 15 13 12 11 14 13 24 21 19 17 20 27 22 6 329 282
62 79 83 81 77 73 63 65 66 57 62 54 43 56 49 46 41 30 38 41 46 43 84 87 9 10 28 348 357 9 7 16 19 23 12 12 13 12 13 13 12 9 11
69 73 83 86 87 79 74 62 66 63 59 57 50 53 52 54 47 44 47 48 47 53 55 74 46 11 350 16 357 356 2 4 5 10 4 7 15 10 12 12 6 11 5
83 75 69 79 81 80 80 75 70 61 52 50 45 47 54 62 58 55 55 48 49 57 55 59 47 19 355 343 360 2 4 3 354 2 8 18 5 10 12 3 2 358 352
74 80 80 73 85 88 84 81 74 68 65 56 43 36 35 57 63 62 55 41 45 49 46 47 44 15 8 357 10 342 335 340 348 6 354 4 359 6 14 15 16 9 360
68 72 68 81 84 84 98 96 91 81 73 61 46 35 41 45 39 42 42 49 59 46 48 40 24 12 0 324 333 348 352 350 347 42 340 344 359 9 6 11 356 10 14
88 81 69 69 68 57 45 93 102 101 95 81 65 48 50 36 43 44 38 45 41 43 77 119 38 7 333 343 327 331 352 338 325 325 330 343 1 360 0 346 343 358 10
84 82 77 72 80 40 77 82 87 67 54 82 73 57 47 26 18 21 37 45 26 29 30 53 49 360 302 321 316 316 324 308 277 277 336 343 353 351 341 350 356 359 1
84 95 100 87 82 40 56 136 102 89 79 30 359 7 34 13 343 12 42 21 20 26 11 28 34 27 23 19 39 344 9 359 343 330 11 342 338 332 333 330 337 357 356
123 118 95 65 57 56 41 125 125 101 353 338 327 314 347 345 359 35 66 22 24 9 3 6 10 12 14 15 22 33 360 353 348 311 34 348 331 349 310 296 331 4 354